Date,TemperatureHighF,TemperatureAvgF,TemperatureLowF,DewpointHighF,DewpointAvgF,DewpointLowF,HumidityHigh,HumidityAvg,HumidityLow,PressureMaxIn,PressureMinIn,WindSpeedMaxMPH,WindSpeedAvgMPH,GustSpeedMaxMPH,PrecipitationSumIn
2013-1-1,25.9,16.4,9.3,13.1,6.8,-1.0,89,67,36,30.58,30.42,7,2,9,0.00
2013-1-2,28.5,19.9,13.4,7.6,2.0,-3.0,67,46,27,30.63,30.45,7,3,23,0.00
2013-1-3,32.7,20.4,9.3,3.5,-0.8,-5.0,55,40,21,30.66,30.55,5,2,9,0.00
2013-1-4,41.4,29.0,21.9,12.3,8.0,1.6,54,42,23,30.56,30.27,6,3,8,0.00
2013-1-5,36.0,25.8,20.4,12.3,7.8,1.8,64,47,33,30.54,30.28,10,2,17,0.00
2013-1-6,42.7,31.7,20.8,10.9,3.1,-5.0,44,30,19,30.53,30.15,6,3,9,0.00
2013-1-7,46.9,35.2,28.3,13.1,7.5,2.1,49,32,16,30.17,29.94,7,3,11,0.00
2013-1-8,44.9,39.5,29.0,16.3,13.6,3.3,55,35,22,30.32,29.91,15,4,31,0.00
2013-1-9,48.4,36.0,26.8,20.2,16.0,11.9,59,45,28,30.43,30.15,5,2,9,0.00
2013-1-10,47.5,36.0,27.6,17.2,11.1,7.3,49,36,19,30.13,29.56,5,2,9,0.00
2013-1-11,36.5,24.3,6.4,21.6,9.7,-7.0,92,58,21,29.98,29.37,9,3,21,0.00
2013-1-12,8.4,3.1,-4.0,4.2,-0.5,-8.0,87,84,77,30.52,30.00,4,1,11,0.00
2013-1-13,7.2,1.8,-5.0,2.0,-2.2,-8.0,86,83,77,30.66,30.53,5,1,8,0.00
2013-1-14,8.0,1.0,-5.0,1.1,-4.1,-9.0,85,79,69,30.72,30.59,4,2,8,0.00
2013-1-15,29.9,17.6,-3.0,15.8,4.5,-7.0,81,58,36,30.67,30.53,5,1,9,0.00
2013-1-16,47.6,33.9,25.0,21.5,17.3,12.0,67,52,31,30.53,30.39,7,3,13,0.07
2013-1-17,46.0,32.2,23.7,19.9,14.7,6.9,71,51,27,30.64,30.41,6,3,11,0.00
2013-1-18,52.7,42.1,30.2,7.7,3.2,-5.0,34,20,9,30.41,30.13,17,5,45,0.00
2013-1-19,53.8,43.1,32.0,8.9,2.1,-6.0,34,19,8,30.30,30.11,10,4,33,0.00
2013-1-20,47.8,32.8,19.0,12.4,7.8,-3.0,74,39,12,30.38,30.18,9,2,20,0.00
2013-1-21,50.6,37.5,17.4,17.7,6.1,-10.0,79,35,8,30.39,30.20,19,4,34,0.00
2013-1-22,56.9,48.1,38.9,2.0,-12.5,-34.0,19,8,2,30.20,30.06,15,4,32,0.00
2013-1-23,62.0,47.5,38.3,11.8,-1.4,-45.0,27,14,1,30.21,30.12,8,2,24,0.00
2013-1-24,58.4,47.6,37.9,25.1,12.0,-4.0,54,26,10,30.13,29.95,23,3,33,0.00
2013-1-25,48.3,38.7,32.3,26.6,24.6,22.5,68,57,42,30.18,30.09,6,2,9,0.00
2013-1-26,46.8,38.8,32.1,34.7,27.7,24.3,93,66,45,30.16,29.84,6,2,10,0.02
2013-1-27,53.0,39.1,32.1,36.0,29.2,19.5,94,71,30,29.85,29.79,6,2,14,0.01
2013-1-28,43.3,31.9,22.1,27.9,21.9,15.8,94,69,41,29.87,29.63,8,2,20,0.00
2013-1-29,26.8,18.4,8.1,19.2,9.7,0.9,93,71,38,30.26,29.85,7,2,12,0.00
2013-1-30,35.1,25.8,6.9,12.9,6.2,-2.0,74,44,29,30.26,30.11,15,5,38,0.00
2013-1-31,41.3,32.6,19.8,20.1,14.9,11.2,87,50,29,30.31,30.11,15,3,31,0.00
2013-2-1,42.9,33.5,25.1,18.0,15.4,11.2,68,49,32,30.36,30.21,16,4,31,0.00
2013-2-2,50.9,36.5,26.7,18.0,12.1,3.5,61,40,15,30.46,30.36,10,3,25,0.00
2013-2-3,49.8,38.0,26.9,17.9,6.0,-7.0,56,30,9,30.40,30.03,10,3,25,0.00
2013-2-4,49.6,39.5,29.4,14.0,6.3,0.0,45,26,14,30.09,29.90,19,4,31,0.00
2013-2-5,53.1,43.0,28.9,23.0,16.5,11.0,51,35,24,30.13,29.89,14,3,32,0.00
2013-2-6,49.5,40.0,27.8,30.6,22.1,17.4,94,53,28,30.15,29.84,5,2,19,0.02
2013-2-7,41.8,30.5,21.5,25.9,17.5,7.8,91,62,31,30.31,30.15,7,2,14,0.01
2013-2-8,44.8,32.0,22.4,14.3,6.0,0.0,64,36,15,30.23,29.89,8,2,13,0.00
2013-2-9,33.3,26.6,21.5,24.6,17.8,11.6,93,71,50,29.88,29.70,7,2,11,0.00
2013-2-10,29.7,23.8,15.6,18.0,12.0,6.2,92,62,40,30.31,29.80,8,2,16,0.00
2013-2-11,20.9,16.4,13.1,14.5,12.3,8.9,90,84,75,30.42,30.29,8,2,13,0.00
2013-2-12,35.5,24.3,12.2,8.6,1.1,-8.0,83,40,15,30.43,30.31,4,2,15,0.00
2013-2-13,40.8,33.2,24.5,12.3,9.2,5.5,51,37,26,30.33,30.12,12,4,32,0.00
2013-2-14,34.7,22.8,13.1,19.8,14.3,9.4,90,73,35,30.55,30.16,14,2,19,0.00
2013-2-15,35.7,23.8,10.5,20.0,12.0,4.5,89,65,28,30.65,30.52,15,2,17,0.11
2013-2-16,48.4,40.6,29.7,13.7,10.5,6.6,49,29,20,30.52,30.06,17,6,38,0.00
2013-2-17,54.9,41.0,28.5,15.6,3.9,-11.0,57,26,6,30.06,29.62,15,4,28,0.00
2013-2-18,33.7,26.1,15.9,16.7,5.7,-1.0,75,45,22,30.33,29.80,18,3,29,0.00
2013-2-19,35.2,23.9,15.4,12.5,8.7,4.1,66,53,32,30.33,30.07,5,2,10,0.00
2013-2-20,30.4,20.8,14.7,22.9,14.7,10.7,92,78,52,30.08,29.89,7,2,13,0.00
2013-2-21,21.7,16.9,10.2,18.4,14.0,7.6,93,88,81,30.23,30.00,5,1,11,0.00
2013-2-22,27.4,18.6,11.0,17.5,13.1,7.4,91,80,63,30.29,30.19,9,2,14,0.01
2013-2-23,44.6,26.4,12.9,22.9,14.9,6.7,91,63,31,30.18,29.89,7,2,18,0.12
2013-2-24,25.3,22.5,18.1,22.7,20.2,14.8,93,91,83,30.38,29.94,7,1,14,0.00
2013-2-25,30.1,19.8,7.5,18.8,13.3,4.7,89,77,54,30.39,30.14,6,2,10,0.13
2013-2-26,28.7,22.8,16.2,23.4,17.9,12.6,91,82,62,30.44,30.10,6,1,9,0.02
2013-2-27,31.1,20.9,11.1,12.4,8.7,3.4,86,62,36,30.55,30.45,9,3,13,0.04
2013-2-28,38.1,29.5,16.2,11.5,6.8,2.2,61,39,25,30.59,30.42,10,4,30,0.01
2013-3-1,45.5,35.4,23.2,22.1,16.1,8.9,63,46,33,30.48,30.41,16,3,21,0.00
2013-3-2,56.1,45.3,34.5,25.0,21.3,16.7,58,40,21,30.45,30.06,13,3,23,0.00
2013-3-3,55.9,46.1,37.1,26.3,21.2,16.1,53,38,21,30.06,29.65,24,5,63,0.00
2013-3-4,45.8,25.8,12.3,27.5,19.3,9.1,92,78,39,30.44,29.66,10,2,22,0.00
2013-3-5,31.7,20.6,8.8,17.9,12.6,5.3,88,72,48,30.62,30.44,6,2,10,0.07
2013-3-6,51.0,36.3,18.9,26.6,20.5,8.4,82,54,29,30.48,30.02,7,2,11,0.00
2013-3-7,56.6,42.6,33.1,28.3,21.7,16.7,65,45,24,30.07,29.97,7,3,12,0.00
2013-3-8,41.2,33.3,26.5,30.5,26.7,19.3,88,77,61,30.04,29.82,6,2,9,0.00
2013-3-9,34.3,27.3,16.5,28.8,24.9,13.0,95,91,82,30.31,29.79,2,0,5,0.00
2013-3-10,40.0,26.4,12.8,24.3,16.2,9.4,88,67,41,30.43,30.31,11,2,15,0.07
2013-3-11,47.4,37.9,26.8,26.9,19.2,11.9,95,51,31,30.30,30.00,32,4,35,0.00
2013-3-12,28.2,24.4,20.2,25.5,22.0,18.5,95,91,81,30.54,30.25,5,2,9,0.00
2013-3-13,58.0,42.5,27.3,34.6,26.5,17.3,92,57,23,30.54,30.35,9,3,14,0.27
2013-3-14,64.6,52.1,39.9,27.3,21.1,12.1,51,31,13,30.36,30.13,8,3,27,0.00
2013-3-15,68.3,57.3,47.9,27.7,21.4,15.5,43,26,13,30.09,29.77,9,3,27,0.00
2013-3-16,53.0,41.9,35.7,32.4,29.0,23.0,77,61,37,29.92,29.79,8,3,14,0.00
2013-3-17,51.5,40.4,30.9,29.0,20.3,10.0,66,46,20,29.88,29.58,12,4,31,0.00
2013-3-18,42.0,35.4,26.1,13.4,7.8,0.0,40,31,23,30.07,29.88,15,5,32,0.00
2013-3-19,47.1,38.4,22.7,15.9,-4.6,-20.0,73,20,5,30.45,30.05,17,5,41,0.00
2013-3-20,45.6,30.6,16.7,21.8,17.6,12.9,85,61,35,30.45,29.95,5,2,11,0.00
2013-3-21,53.2,40.8,29.9,27.5,18.6,5.5,63,42,22,29.95,29.59,8,3,30,0.00
2013-3-22,36.7,27.7,20.9,25.0,16.7,9.1,94,66,46,30.13,29.83,14,3,19,0.00
2013-3-23,22.2,15.4,10.0,19.2,12.9,7.4,93,90,88,30.55,30.13,2,0,12,0.00
2013-3-24,21.6,13.8,4.4,14.9,8.3,1.4,89,79,61,30.64,30.50,4,1,10,0.05
2013-3-25,28.1,17.5,5.2,13.9,9.5,1.9,90,72,49,30.66,30.57,7,2,14,0.01
2013-3-26,47.1,30.6,14.0,27.1,19.6,8.9,81,66,33,30.58,30.17,9,2,17,0.02
2013-3-27,47.0,36.2,27.0,34.7,28.4,21.7,90,74,56,30.27,30.18,7,2,11,0.00
2013-3-28,56.3,42.9,31.0,32.6,28.7,23.9,86,60,34,30.24,30.15,6,2,13,0.00
2013-3-29,60.1,47.4,37.8,31.5,27.6,23.0,72,49,26,30.20,30.07,8,3,16,0.00
2013-3-30,59.7,46.7,36.1,35.8,27.7,21.5,91,53,23,30.23,30.01,16,4,32,0.00
2013-3-31,64.0,47.0,30.7,32.5,23.3,5.9,90,48,10,30.22,29.98,13,3,22,0.00
2013-4-1,44.0,35.9,26.5,33.5,28.1,22.7,90,74,49,30.22,30.08,9,2,14,0.01
2013-4-2,34.4,32.5,31.9,33.1,30.8,29.9,96,94,90,30.30,30.19,3,0,6,0.06
2013-4-3,55.6,41.5,30.8,39.9,32.6,27.5,97,74,38,30.32,30.18,5,1,16,0.46
2013-4-4,62.6,49.3,34.3,33.6,29.2,23.4,82,49,23,30.23,29.99,7,2,17,0.00
2013-4-5,66.6,55.8,43.9,35.8,24.1,19.4,73,32,17,29.98,29.61,11,3,25,0.00
2013-4-6,60.1,49.7,40.6,29.0,22.9,17.2,51,36,21,29.87,29.75,9,4,29,0.01
2013-4-7,55.9,47.8,35.4,31.5,26.2,18.5,80,45,23,29.83,29.63,17,4,42,0.00
2013-4-8,57.1,42.2,24.5,33.0,28.3,22.7,94,61,33,29.82,29.41,8,3,23,0.02
2013-4-9,22.7,14.5,7.9,20.9,11.9,5.3,93,89,85,30.53,29.86,5,1,12,0.00
2013-4-10,23.7,13.7,-1.0,16.9,9.6,-4.0,92,84,71,30.57,30.30,1,0,7,0.11
2013-4-11,49.2,36.1,15.0,33.5,25.8,12.8,95,69,43,30.27,29.99,8,2,30,0.33
2013-4-12,54.2,38.1,31.2,32.1,29.5,17.2,92,74,23,30.08,29.95,12,2,22,0.00
2013-4-13,59.4,44.9,28.3,36.0,26.4,18.7,94,56,21,30.04,29.46,9,3,20,0.09
2013-4-14,41.9,36.5,32.1,35.0,15.7,2.0,89,45,21,29.83,29.52,11,4,32,0.07
2013-4-15,34.7,23.4,18.4,23.5,19.2,11.7,92,85,38,30.26,29.82,4,0,18,0.00
2013-4-16,29.1,21.7,18.5,24.3,19.3,16.5,93,90,82,30.27,30.15,0,0,0,0.00
2013-4-26,60.0,53.5,44.8,26.5,18.5,12.1,45,26,18,30.24,30.17,5,3,23,0.68
2013-4-27,68.4,58.0,42.1,24.3,15.3,9.7,49,20,10,30.22,29.96,12,5,23,0.00
2013-4-28,71.8,61.7,49.7,31.4,22.2,15.8,41,23,13,29.96,29.71,10,4,20,0.00
2013-4-29,71.6,60.9,44.4,37.2,27.9,17.3,64,32,13,29.80,29.47,12,3,26,0.00
2013-4-30,57.8,46.2,31.7,37.5,32.5,24.0,95,62,27,30.03,29.49,10,3,24,0.17
2013-5-1,32.1,25.7,19.4,31.0,24.0,17.4,96,93,89,30.87,30.04,4,0,7,0.00
2013-5-2,36.8,27.8,17.1,27.8,19.2,11.3,92,72,35,31.00,30.70,5,1,7,0.73
2013-5-3,52.4,40.6,25.0,32.8,25.9,21.6,88,59,32,30.69,30.24,6,2,10,0.00
2013-5-4,50.4,42.4,32.9,33.0,28.2,24.5,74,58,42,30.31,30.18,9,2,13,0.00
2013-5-5,50.9,40.4,30.1,37.8,28.4,22.5,87,64,39,30.31,30.17,6,2,13,0.06
2013-5-6,58.4,48.2,35.5,37.9,34.1,30.8,83,60,37,30.19,29.93,9,2,13,0.00
2013-5-7,62.3,50.2,42.2,46.9,38.0,33.0,90,65,36,29.99,29.84,7,3,14,0.18
2013-5-8,53.7,45.0,40.5,44.1,39.3,33.7,94,81,60,30.14,29.93,9,3,19,0.97
2013-5-9,52.9,44.8,39.7,43.0,40.1,36.4,94,84,59,30.25,30.11,4,2,24,0.29
2013-5-10,59.5,48.9,36.4,42.0,36.8,33.8,93,66,39,30.35,30.23,7,2,14,0.00
2013-5-11,60.0,51.1,39.3,43.9,37.8,32.4,82,61,45,30.40,30.20,9,2,16,0.00
2013-5-12,71.2,62.5,47.2,41.4,33.9,30.8,62,35,25,30.22,29.99,12,3,17,0.00
2013-5-13,78.5,68.3,53.9,43.8,36.1,31.7,52,32,21,30.02,29.84,8,4,16,0.00
2013-5-14,78.9,68.2,57.6,40.9,35.7,30.5,45,31,18,29.84,29.72,15,4,27,0.00
2013-5-15,72.6,62.3,50.4,48.2,39.3,33.1,84,46,26,29.81,29.70,7,3,19,0.01
2013-5-16,76.0,62.2,49.7,47.1,40.1,30.7,84,48,19,29.79,29.67,9,3,19,0.00
2013-5-17,79.1,65.8,49.0,44.2,33.4,16.4,70,35,11,29.77,29.57,8,3,24,0.00
2013-5-18,68.5,62.2,48.5,36.8,28.5,14.8,61,29,14,29.70,29.56,7,3,24,0.00
2013-5-19,63.5,54.5,43.7,36.0,29.1,22.7,61,39,22,29.79,29.66,8,3,26,0.00
2013-5-20,55.0,49.1,41.5,47.1,39.7,29.7,91,71,54,30.00,29.79,12,2,14,0.11
2013-5-21,66.7,51.6,37.2,36.5,31.1,26.8,80,49,23,30.05,29.86,14,3,36,0.00
2013-5-22,68.1,53.6,40.7,48.2,37.4,31.5,91,58,30,30.03,29.84,14,3,19,0.06
2013-5-23,62.5,51.4,43.7,49.0,45.6,42.6,97,82,60,30.05,29.90,6,2,11,0.00
2013-5-24,75.4,59.2,43.8,50.4,43.3,35.8,94,62,24,29.97,29.83,14,3,14,0.00
2013-5-25,79.5,65.3,49.9,51.0,40.9,23.7,84,46,13,29.89,29.69,7,3,16,0.00
2013-5-26,78.5,67.2,55.5,38.3,27.9,17.9,44,24,11,29.76,29.66,14,4,21,0.00
2013-5-27,77.3,65.9,51.7,36.2,22.7,13.5,48,22,9,29.68,29.53,10,3,20,0.00
2013-5-28,71.9,59.6,46.7,43.5,36.0,27.4,59,43,21,29.67,29.43,6,2,18,0.00
2013-5-29,60.4,50.5,44.0,46.4,39.6,30.2,92,68,35,29.70,29.51,8,2,25,0.07
2013-5-30,63.5,53.4,42.3,31.8,26.3,19.2,62,37,18,29.82,29.65,19,5,47,0.00
2013-5-31,64.3,56.5,44.3,23.6,16.8,9.2,43,22,12,29.94,29.79,18,5,35,0.00
2013-6-1,62.2,53.5,41.6,38.5,33.2,18.5,66,47,23,30.17,29.96,10,3,16,0.00
2013-6-2,77.8,58.9,41.8,37.9,33.0,28.9,61,41,17,30.17,29.73,8,3,13,0.00
2013-6-3,82.9,71.2,56.1,37.6,26.2,20.2,40,20,10,29.73,29.52,13,4,33,0.00
2013-6-4,63.5,54.9,46.9,49.7,41.7,23.5,91,63,27,30.16,29.70,10,2,14,0.09
2013-6-5,51.1,45.0,41.5,46.6,43.0,40.4,97,93,84,30.23,30.14,5,1,8,0.20
2013-6-6,71.1,57.4,41.6,48.1,41.8,33.0,95,61,29,30.21,30.01,7,2,11,0.01
2013-6-7,73.9,61.0,48.6,46.0,41.2,36.1,77,50,33,30.07,29.69,7,2,13,0.00
2013-6-8,71.1,63.7,53.0,48.2,41.9,35.0,67,46,29,29.90,29.62,10,3,20,0.00
2013-6-9,82.3,66.4,47.9,47.5,39.4,33.0,73,42,19,29.94,29.78,12,4,14,0.00
2013-6-10,93.7,77.6,61.3,44.4,33.9,20.3,39,22,7,29.78,29.57,10,3,20,0.00
2013-6-11,91.1,78.8,64.0,35.9,22.1,-9.0,32,15,2,29.69,29.49,14,4,31,0.00
2013-6-12,85.4,73.2,59.1,50.2,31.1,21.7,55,22,15,29.86,29.69,12,3,18,0.00
2013-6-13,78.7,62.8,51.7,61.3,52.3,42.8,92,71,38,29.89,29.71,5,2,11,0.01
2013-6-14,82.0,71.5,57.8,46.5,38.7,27.9,58,32,15,29.82,29.66,8,4,21,0.00
2013-6-15,74.3,64.1,50.5,49.2,46.0,43.0,76,53,37,29.92,29.74,11,2,13,0.00
2013-6-16,77.9,65.5,53.0,54.0,41.6,29.4,81,47,18,29.99,29.88,15,3,24,0.00
2013-6-17,72.7,62.3,51.3,55.1,45.0,35.2,81,54,35,30.01,29.89,8,3,17,0.06
2013-6-18,76.7,63.1,49.2,52.2,48.7,43.8,93,63,33,30.02,29.75,9,2,15,0.00
2013-6-19,86.7,68.1,48.2,51.0,38.8,14.9,86,43,10,29.86,29.50,11,2,13,0.00
2013-6-20,80.6,70.0,53.2,38.4,28.7,13.8,41,23,12,29.71,29.60,11,3,20,0.00
2013-6-21,83.4,71.0,54.6,55.4,41.0,21.7,60,38,11,29.73,29.56,7,2,14,0.00
2013-6-22,81.4,65.0,50.6,48.8,42.5,23.9,70,48,14,29.76,29.58,8,2,23,0.00
2013-6-23,74.1,62.9,51.0,54.9,44.1,35.4,79,52,32,29.88,29.67,8,3,15,0.03
2013-6-24,80.7,68.3,53.1,50.6,38.8,19.2,74,41,13,29.78,29.57,12,3,18,0.00
2013-6-25,84.3,72.9,57.7,36.7,31.7,23.2,36,23,16,29.79,29.62,8,3,21,0.00
2013-6-26,88.1,76.2,63.9,41.0,37.0,32.9,38,25,15,29.85,29.75,8,4,19,0.00
2013-6-27,89.5,78.7,64.6,44.3,37.9,33.1,41,24,15,29.96,29.83,9,4,17,0.00
2013-6-28,84.0,71.7,59.7,61.4,50.2,41.7,86,49,34,30.03,29.87,9,3,20,0.20
2013-6-29,77.6,66.4,55.5,56.8,52.7,47.6,86,63,37,30.02,29.93,7,2,14,0.01
2013-6-30,73.6,64.4,58.5,57.7,53.6,51.9,88,69,48,30.05,29.97,8,2,14,0.03
2013-7-1,72.4,63.5,53.2,53.8,51.7,49.1,87,67,46,30.14,30.05,10,2,15,0.01
2013-7-2,75.6,64.4,51.1,52.4,47.9,43.5,82,57,37,30.14,29.97,5,2,14,0.00
2013-7-3,81.6,70.3,54.6,49.6,44.9,42.9,66,42,26,30.00,29.73,9,4,14,0.00
2013-7-4,83.5,71.8,59.8,56.1,45.2,40.1,67,40,26,29.78,29.67,7,3,14,0.07
2013-7-5,80.2,69.9,61.7,56.9,50.0,44.6,64,50,32,29.70,29.61,8,2,14,0.01
2013-7-6,86.8,74.0,65.6,51.0,47.0,41.8,59,40,23,29.73,29.64,10,4,30,0.01
2013-7-7,82.5,72.6,63.0,54.2,49.4,44.2,55,45,30,29.83,29.70,7,2,20,0.00
2013-7-8,88.3,74.0,61.1,55.0,46.8,34.7,71,42,15,29.86,29.76,8,2,25,0.00
2013-7-9,89.0,77.8,66.2,47.3,41.0,35.3,38,28,17,29.94,29.83,10,3,16,0.00
2013-7-10,84.3,71.7,58.9,55.6,49.1,40.2,61,46,24,29.96,29.79,8,3,16,0.00
2013-7-11,90.9,73.3,57.9,56.0,50.6,36.3,77,49,15,29.88,29.59,9,3,17,0.02
2013-7-12,82.9,71.4,62.8,59.8,52.0,47.1,89,54,32,29.85,29.65,9,3,23,0.37
2013-7-13,80.1,66.9,59.7,58.9,56.5,54.1,88,71,44,30.00,29.84,8,2,16,0.09
2013-7-14,72.6,66.3,57.7,61.2,56.2,49.7,87,71,58,30.06,29.92,9,2,15,0.00
2013-7-15,71.7,63.5,56.8,61.6,57.6,51.3,96,82,60,30.02,29.92,6,2,14,0.25
2013-7-16,77.8,64.9,51.6,54.1,49.9,45.3,92,62,34,30.07,29.98,7,2,14,0.00
2013-7-17,82.5,67.7,53.3,55.5,51.4,47.2,80,58,33,30.07,29.91,5,2,12,0.00
2013-7-18,85.2,70.5,62.1,55.8,52.3,46.2,73,54,32,29.95,29.83,9,3,22,0.12
2013-7-19,77.7,68.8,59.6,57.7,54.2,47.8,83,61,35,29.97,29.86,17,3,19,0.00
2013-7-20,81.1,67.5,57.2,54.4,50.7,46.0,79,57,34,29.89,29.75,13,2,31,0.00
2013-7-21,83.2,68.9,54.0,58.2,50.3,29.0,81,55,14,29.79,29.70,9,2,20,0.00
2013-7-22,86.9,77.4,63.4,54.0,41.9,21.6,48,30,10,29.77,29.65,11,4,19,0.00
2013-7-23,82.8,74.0,65.1,56.6,39.4,16.8,68,33,11,29.89,29.68,10,4,13,0.00
2013-7-24,75.0,67.5,58.3,58.8,53.0,44.5,79,61,35,30.02,29.84,10,2,20,0.01
2013-7-25,70.2,61.8,54.2,56.3,52.5,50.5,88,73,51,30.13,29.89,7,2,17,0.31
2013-7-26,74.1,64.4,54.1,60.3,51.0,44.9,82,63,36,30.15,29.98,7,2,15,0.07
2013-7-27,68.8,61.9,54.9,57.4,51.3,42.6,96,69,56,30.02,29.90,8,2,14,0.16
2013-7-28,65.8,58.2,55.4,60.5,56.1,54.2,98,93,75,29.94,29.82,7,1,10,0.12
2013-7-29,68.4,60.4,55.2,59.3,53.9,47.4,96,81,56,30.09,29.86,9,2,17,0.02
2013-7-30,78.8,70.6,57.4,53.3,50.0,44.9,79,51,32,30.11,29.99,9,2,25,0.00
2013-7-31,78.2,78.2,78.2,49.7,49.7,49.7,37,37,37,30.17,29.85,2,2,0,0.00
2013-8-1,78.2,78.2,78.2,49.7,49.7,49.7,37,37,37,30.15,29.90,2,2,0,0.00
2013-8-2,78.2,78.2,78.2,49.7,49.7,49.7,37,37,37,29.98,29.87,2,2,0,0.00
2013-8-3,78.2,78.2,78.2,49.7,49.7,49.7,37,37,37,30.20,29.98,2,2,0,0.00
2013-8-4,78.2,78.2,78.2,49.7,49.7,49.7,37,37,37,30.15,29.99,2,2,0,0.00
2013-8-5,78.2,78.2,78.2,49.7,49.7,49.7,37,37,37,30.05,29.94,2,2,0,0.00
2013-8-6,72.7,69.0,64.9,54.9,45.8,41.7,69,44,34,29.80,29.76,7,2,18,0.06
2013-8-7,69.7,62.0,55.5,54.3,49.6,40.4,81,65,43,29.93,29.81,7,2,13,0.00
2013-8-8,67.6,59.5,51.0,56.5,51.0,43.8,94,75,45,30.09,29.89,6,2,12,0.00
2013-8-9,71.6,61.8,52.5,53.3,47.1,41.8,76,60,39,30.10,30.03,7,2,17,0.01
2013-8-10,79.3,63.8,52.2,57.4,46.2,40.8,78,55,27,30.12,29.97,11,3,19,0.04
2013-8-11,73.6,65.8,55.8,49.2,46.0,42.0,72,50,35,30.04,29.95,8,2,18,0.00
2013-8-12,75.8,63.3,52.6,54.4,49.8,44.9,92,63,34,30.13,29.96,7,2,16,0.36
2013-8-13,70.7,61.4,50.4,55.6,49.0,43.9,86,65,41,30.11,30.01,8,3,14,0.04
2013-8-14,74.8,62.1,48.3,55.4,46.8,42.6,89,60,34,30.12,29.97,7,2,11,0.01
2013-8-15,76.6,66.6,59.1,49.6,42.0,33.1,57,42,26,30.04,29.94,8,3,22,0.00
2013-8-16,83.1,70.9,57.5,47.8,42.9,36.3,57,38,19,30.01,29.90,5,2,11,0.00
2013-8-17,88.3,73.1,59.6,53.2,38.3,27.1,55,32,12,29.96,29.79,6,3,10,0.00
2013-8-18,84.6,73.1,62.4,51.3,41.8,33.4,41,33,19,29.90,29.80,7,2,17,0.00
2013-8-19,87.0,75.4,60.8,46.2,41.4,36.8,46,31,18,29.88,29.76,8,3,15,0.00
2013-8-20,89.5,78.1,63.9,45.7,38.8,28.0,39,26,11,29.78,29.68,7,3,14,0.00
2013-8-21,84.3,74.1,66.8,60.1,46.4,39.7,74,39,26,29.90,29.75,12,4,17,0.03
2013-8-22,75.0,65.8,57.3,58.0,53.8,50.6,81,66,50,30.02,29.90,5,2,13,0.02
2013-8-23,76.6,68.3,62.6,56.3,51.6,47.3,80,56,42,30.02,29.78,8,3,23,0.08
2013-8-24,79.5,69.4,58.9,55.0,49.4,45.7,71,50,32,29.91,29.82,8,3,18,0.05
2013-8-25,81.1,70.5,60.5,54.6,49.1,45.6,66,48,29,29.94,29.87,13,3,24,0.00
2013-8-26,83.2,69.6,60.8,61.2,53.2,49.8,84,58,35,29.95,29.87,10,4,25,0.10
2013-8-27,67.9,64.1,61.4,53.6,50.8,48.8,66,62,57,29.95,29.91,4,2,10,0.00
2013-9-4,81.6,75.5,67.3,51.8,49.1,46.3,49,40,31,29.94,29.86,5,2,21,0.00
2013-9-5,85.8,72.2,58.3,53.4,48.9,45.7,71,46,27,29.97,29.89,6,2,9,0.00
2013-9-6,87.0,75.8,66.6,51.5,46.0,41.4,48,36,23,29.92,29.77,8,3,31,0.00
2013-9-7,86.1,74.2,62.8,51.2,46.5,43.4,53,38,24,29.87,29.75,9,3,16,0.00
2013-9-8,81.3,71.4,62.5,49.4,45.7,43.0,49,40,29,29.79,29.64,8,2,18,0.00
2013-9-9,75.3,63.7,55.8,57.7,51.4,46.6,96,67,42,29.89,29.68,7,2,20,0.77
2013-9-10,58.7,56.0,54.1,56.9,54.8,53.2,97,96,92,30.14,29.89,3,1,7,0.41
2013-9-11,58.5,56.9,55.7,58.0,56.2,55.1,99,98,96,30.16,30.10,9,2,20,5.13
2013-9-12,57.9,56.8,55.1,57.6,56.4,54.8,99,99,98,30.16,30.11,9,3,22,6.87
2013-9-13,66.6,58.4,54.6,60.7,56.7,54.3,100,95,79,30.11,29.81,6,1,8,0.33
2013-9-14,66.1,58.2,50.9,57.0,53.9,50.0,98,86,67,29.94,29.79,6,1,15,0.08
2013-9-15,55.8,53.3,50.5,53.6,52.0,49.9,99,95,90,30.22,29.93,8,1,15,1.78
2013-9-16,66.5,55.3,50.3,57.9,52.8,49.4,99,92,73,30.20,29.99,5,1,7,0.08
2013-9-17,77.0,65.2,52.6,53.6,46.6,42.2,89,54,29,30.02,29.69,7,3,12,0.00
2013-9-18,77.7,66.5,57.6,48.0,43.4,39.9,58,44,29,29.73,29.60,9,4,41,0.00
2013-9-19,60.7,53.3,46.9,47.5,42.7,38.6,83,68,49,30.13,29.72,7,2,14,0.00
2013-9-20,64.2,52.7,41.9,46.4,42.8,39.2,92,71,43,30.17,30.02,5,2,10,0.00
2013-9-21,73.7,60.7,49.6,51.7,43.3,34.0,75,54,41,30.03,29.70,5,3,10,0.00
2013-9-22,72.7,62.0,50.4,50.7,44.0,35.7,89,54,37,29.70,29.42,9,3,19,0.06
2013-9-23,59.9,54.3,46.7,47.0,34.7,29.2,94,51,32,30.00,29.40,16,5,30,0.31
2013-9-24,67.3,54.7,43.3,41.4,35.0,28.2,63,48,32,30.09,29.80,6,3,9,0.00
2013-9-25,71.2,58.5,46.2,46.2,37.1,26.7,62,46,30,29.78,29.38,8,3,11,0.00
2013-9-26,59.9,51.9,42.2,45.9,41.5,33.2,86,69,44,29.69,29.48,7,2,11,0.00
2013-9-27,50.5,43.0,35.5,47.3,41.6,34.2,98,95,82,30.05,29.69,5,2,12,0.55
2013-9-28,62.6,47.4,31.9,37.1,29.3,21.9,95,52,27,30.23,30.05,9,3,21,0.01
2013-9-29,70.5,57.3,44.0,34.0,27.0,18.9,55,34,17,30.17,29.84,6,2,25,0.00
2013-9-30,78.2,63.1,52.9,42.6,31.5,23.1,56,32,16,29.85,29.65,12,3,22,0.00
2013-10-1,65.8,56.5,48.5,45.3,37.7,26.4,76,51,27,29.94,29.78,7,3,12,0.00
2013-10-2,69.3,58.0,46.9,42.3,36.6,28.4,76,47,29,29.92,29.80,7,2,13,0.00
2013-10-3,53.9,46.6,37.3,45.4,39.8,34.8,96,78,63,29.84,29.71,6,2,14,0.25
2013-10-4,43.7,33.7,27.3,41.5,31.5,24.6,97,92,72,30.32,29.79,11,2,19,0.84
2013-10-5,55.0,41.1,26.4,27.9,19.5,5.8,92,49,19,30.39,30.29,9,3,18,0.08
2013-10-6,61.4,49.9,39.7,37.9,27.7,12.1,60,43,26,30.31,30.21,8,3,14,0.00
2013-10-7,69.2,55.9,43.6,42.5,31.6,22.0,60,40,25,30.20,29.87,5,3,10,0.00
2013-10-8,70.8,58.4,48.9,42.8,31.1,22.3,55,37,16,29.87,29.63,5,2,10,0.00
2013-10-9,56.1,50.4,46.8,42.2,36.7,29.6,82,60,48,29.94,29.71,9,2,15,0.00
2013-10-10,52.1,45.6,40.9,45.7,41.1,36.0,93,84,73,29.93,29.54,6,1,18,0.07
2013-10-11,54.7,49.6,41.6,36.4,29.8,25.2,80,47,36,30.03,29.45,22,4,46,0.00
2013-10-12,48.1,41.3,36.8,39.4,36.8,34.9,93,84,69,30.22,30.03,3,1,7,0.00
2013-10-13,52.8,44.0,34.8,43.5,38.4,33.2,95,81,65,30.24,29.94,5,2,9,0.00
2013-10-14,47.7,42.1,35.5,39.4,35.0,30.3,94,76,56,30.23,29.84,7,2,21,0.03
2013-10-15,35.6,32.9,29.6,29.9,26.3,23.6,86,76,68,30.41,30.23,7,2,13,0.00
2013-10-16,46.3,34.6,25.0,31.8,26.8,20.3,92,74,52,30.38,30.18,6,2,10,0.00
2013-10-17,39.9,36.6,30.9,31.2,27.2,19.9,88,69,55,30.26,30.14,6,1,12,0.00
2013-10-18,38.6,32.0,28.0,31.7,27.9,23.9,96,85,66,30.35,30.20,7,2,12,0.38
2013-10-19,57.2,45.5,30.8,30.9,23.7,19.4,78,44,23,30.31,29.95,10,4,21,0.03
2013-10-20,50.2,39.7,30.2,35.0,27.9,20.3,95,68,31,30.21,29.92,9,3,25,0.03
2013-10-21,53.6,42.0,29.2,31.7,26.3,23.0,94,59,31,30.36,30.21,9,3,22,0.06
2013-10-22,57.6,47.2,37.4,34.2,29.3,23.2,68,51,36,30.26,30.14,7,2,15,0.00
2013-10-23,57.6,47.5,40.2,34.6,30.5,25.5,72,53,37,30.26,30.16,5,2,12,0.00
2013-10-24,46.9,38.1,29.2,37.6,33.2,27.4,95,83,69,30.38,30.26,4,2,8,0.00
2013-10-25,61.5,48.0,34.7,38.7,32.1,27.7,90,57,29,30.37,30.18,4,2,10,0.00
2013-10-26,55.5,44.7,35.8,34.8,31.3,25.3,79,60,42,30.37,30.19,7,2,11,0.00
2013-10-27,63.9,51.4,41.4,26.9,23.9,19.9,55,36,19,30.19,29.84,7,3,15,0.00
2013-10-28,47.7,33.4,27.9,30.6,28.1,25.0,96,83,44,30.16,29.85,7,2,12,0.04
2013-10-29,31.8,29.7,28.2,31.3,28.9,27.1,98,97,96,30.21,30.08,2,0,4,0.00
2013-10-30,37.1,31.5,25.9,35.0,29.5,23.1,98,93,63,30.11,30.00,7,1,10,0.26
2013-10-31,47.7,40.2,28.8,24.5,20.0,14.3,81,46,28,30.03,29.93,19,5,33,0.10
2013-11-1,46.6,38.4,31.2,31.1,24.7,18.9,81,59,34,30.33,30.00,11,3,24,0.00
2013-11-2,60.2,40.5,27.7,32.1,21.1,10.8,76,50,14,30.35,29.87,6,2,14,0.00
2013-11-3,60.9,49.5,34.9,27.3,18.7,6.2,64,32,15,29.87,29.53,14,3,20,0.00
2013-11-4,34.9,30.7,25.8,25.2,18.3,12.8,89,61,42,30.11,29.78,11,2,18,0.00
2013-11-5,37.2,29.1,24.1,20.7,11.9,1.4,81,52,23,30.36,30.08,8,2,19,0.00
2013-11-6,44.4,36.5,24.2,18.6,13.6,4.9,54,39,29,30.49,30.34,13,3,30,0.00
2013-11-7,48.7,39.8,29.6,28.8,23.0,17.7,66,52,37,30.50,30.10,21,3,39,0.00
2013-11-8,60.4,53.2,38.8,24.0,17.6,7.6,54,26,14,30.10,29.83,25,6,46,0.00
2013-11-9,54.6,44.7,33.3,33.2,26.5,17.3,77,52,24,30.27,29.97,16,3,23,0.00
2013-11-10,62.0,47.0,33.2,31.8,23.9,18.0,77,44,18,30.33,30.23,6,2,15,0.00
2013-11-11,61.5,41.3,26.2,32.0,24.3,18.8,95,58,20,30.69,30.20,11,4,19,0.00
2013-11-12,50.1,39.1,27.4,33.6,28.7,23.1,95,67,51,30.72,30.52,5,2,8,0.00
2013-11-13,62.2,50.4,35.5,29.1,17.2,10.4,61,28,16,30.52,30.02,7,3,10,0.00
2013-11-14,52.3,44.6,36.0,33.0,24.7,14.5,70,47,27,30.05,29.79,13,3,18,0.00
2013-11-15,56.7,46.5,34.4,28.0,17.6,6.7,61,34,17,29.77,29.47,21,5,33,0.00
2013-11-16,51.7,40.7,30.7,30.8,20.5,14.4,86,46,26,29.58,29.31,16,4,38,0.02
2013-11-17,49.9,38.9,31.3,23.7,16.2,10.2,68,41,21,30.16,29.57,22,5,34,0.00
2013-11-18,60.2,41.6,28.1,20.2,16.1,9.1,67,39,13,30.27,30.11,8,3,21,0.00
2013-11-19,54.7,46.2,37.5,31.4,20.5,10.0,63,37,24,30.10,29.76,10,3,30,0.00
2013-11-20,51.9,43.4,25.3,30.6,25.8,21.1,88,51,30,30.05,29.76,6,2,30,0.00
2013-11-21,23.2,12.5,8.8,20.9,9.8,5.9,91,89,87,30.96,30.07,6,2,9,0.00
2013-11-22,29.4,22.7,15.2,23.0,17.9,11.8,92,82,67,30.98,30.85,3,1,7,0.00
2013-11-23,28.1,23.1,19.2,20.6,17.9,14.5,93,81,59,30.90,30.59,4,1,6,0.00
2013-11-24,36.8,28.0,18.7,29.9,23.0,16.7,93,82,51,30.59,30.22,4,1,9,0.05
2013-11-25,35.5,31.8,26.9,27.0,21.5,17.6,78,66,48,30.50,30.29,6,1,9,0.02
2013-11-26,44.1,32.1,24.6,23.3,19.9,17.2,83,63,34,30.61,30.44,6,2,10,0.05
2013-11-27,57.5,42.3,29.0,27.0,19.9,16.3,65,43,21,30.42,30.16,7,3,14,0.01
2013-11-28,39.4,32.7,28.1,26.8,23.5,20.2,82,69,58,30.32,30.23,4,2,8,0.00
2013-11-29,55.8,44.0,30.2,23.2,19.1,15.1,75,39,20,30.29,30.21,6,3,17,0.00
2013-11-30,53.4,40.3,32.0,22.9,16.0,12.5,52,38,21,30.26,30.17,7,3,11,0.00
2013-12-1,48.9,42.5,31.8,24.8,19.1,15.0,54,39,28,30.26,29.90,12,3,26,0.00
2013-12-2,52.4,46.7,41.1,24.2,21.3,19.0,48,37,28,29.92,29.51,25,7,58,0.00
2013-12-3,48.1,32.4,7.0,28.3,17.7,3.9,89,60,33,29.85,29.45,19,5,39,0.00
2013-12-4,6.9,2.7,-4.0,3.8,-0.7,-8.0,89,85,82,30.68,29.85,2,0,6,0.00
2013-12-5,2.9,-4.1,-10.0,-1.0,-8.1,-14.0,87,82,76,30.85,30.67,0,0,0,0.00
2013-12-6,0.0,-5.5,-11.0,-4.0,-9.5,-15.0,85,82,79,30.99,30.85,0,0,0,0.00
2013-12-7,2.6,-2.7,-8.0,-1.0,-6.4,-12.0,85,83,81,30.95,30.48,3,1,7,0.00
2013-12-8,20.4,5.6,-3.0,8.7,1.1,-7.0,92,82,44,30.64,30.39,7,1,17,0.00
2013-12-9,23.7,10.9,-5.0,1.0,-3.7,-9.0,86,56,27,30.69,30.59,19,4,45,0.00
2013-12-10,39.2,27.9,16.2,13.2,7.8,0.2,72,44,29,30.66,30.22,29,6,53,0.02
2013-12-11,37.0,20.8,9.5,16.2,10.1,3.6,87,66,24,30.75,30.57,6,2,15,0.00
2013-12-12,48.4,35.3,26.7,16.5,11.3,4.1,53,38,23,30.73,30.18,6,3,10,0.00
2013-12-13,43.3,32.6,27.4,18.6,14.1,7.1,68,48,27,30.42,30.09,6,2,11,0.00
2013-12-14,40.6,30.6,19.9,17.3,12.7,9.2,73,49,28,30.58,30.42,8,2,22,0.00
2013-12-15,49.7,43.4,35.4,18.1,15.3,11.7,49,32,24,30.45,30.23,32,8,45,0.00
2013-12-16,55.3,46.8,36.0,19.0,12.9,6.1,43,26,14,30.30,30.16,28,7,45,0.00
2013-12-17,57.1,47.9,36.1,18.3,13.2,9.5,48,26,16,30.40,30.12,16,5,26,0.00
2013-12-18,61.9,49.8,39.5,17.7,12.1,4.4,39,23,10,30.12,29.74,13,4,35,0.00
2013-12-19,43.6,31.6,13.0,24.2,19.1,10.6,91,63,35,30.00,29.57,8,2,15,0.00
2013-12-20,21.3,16.5,12.5,19.8,14.3,10.1,94,91,90,30.07,29.98,2,0,5,0.00
2013-12-21,24.9,20.2,15.6,23.1,18.1,13.4,93,91,88,30.23,29.91,4,1,7,0.00
2013-12-22,33.5,22.8,12.2,17.9,12.6,8.9,92,69,36,30.53,30.24,10,2,18,0.00
2013-12-23,41.6,27.7,14.7,22.4,16.7,12.5,92,67,37,30.59,30.33,14,3,42,0.01
2013-12-24,45.9,37.4,26.2,29.5,16.2,2.9,73,42,30,30.39,30.11,26,6,62,0.00
2013-12-25,43.4,31.1,21.2,11.2,5.9,-3.0,52,35,14,30.60,30.38,23,4,38,0.00
2013-12-26,49.1,40.5,30.8,17.0,9.4,1.7,52,29,17,30.47,30.35,23,4,33,0.00
2013-12-27,51.7,41.1,34.4,22.8,20.0,15.5,54,43,29,30.41,30.15,5,3,10,0.00
2013-12-28,53.9,37.7,17.8,22.8,19.4,15.3,90,52,24,30.31,29.94,10,4,18,0.00
2013-12-29,36.3,23.2,12.0,18.9,11.7,3.8,91,66,25,30.44,30.20,25,3,37,0.01
2013-12-30,41.9,34.3,29.1,14.6,11.0,7.3,52,38,25,30.44,30.26,13,4,30,0.01
2013-12-31,49.8,41.5,31.5,21.4,17.8,12.2,52,39,28,30.25,30.01,10,3,32,0.00
2014-1-1,40.3,29.6,20.0,27.4,22.2,16.3,92,76,45,30.46,29.97,14,3,26,0.00
2014-1-2,45.2,31.5,19.7,19.6,15.4,4.0,83,54,24,30.51,30.23,9,3,28,0.00